Marrakech, Morocco

9:35 PM WET on December 16, 2017 (GMT +0000)
Marrakech

Weather History for GMMX - April, 2013

Change the Weather History Date:

Thursday, April 18, 2013

  Actual Average Record
Temperature  
Mean Temperature 81 °F -  
Max Temperature 99 °F 79 °F 99 °F (2013)
Min Temperature 63 °F 55 °F 48 °F (2012)
Cooling Degree Days 16    
Growing Degree Days 31 (Base 50)    
Moisture  
Dew Point 41 °F    
Average Humidity 22    
Maximum Humidity 49    
Minimum Humidity 5    
Precipitation  
Precipitation 0.00 in 0.04 in - ()
Sea Level Pressure  
Sea Level Pressure 30.01 in    
Wind  
Wind Speed 8 mph ()    
Max Wind Speed 15 mph    
Max Gust Speed 26 mph    
Visibility 5.9 miles    
Events      
Averages and records for this station are not official NWS values.
T = Trace of Precipitation, MM = Missing Value Source: Averaged Metar Reports

Daily Weather History Graph

Daily Weather History Graph

Search for Another Location

Airport or City:

Trip Planner

Search our weather history database for the weather conditions in past years. The results will help you decide how hot, cold, wet, or windy it might be!

Date:

Astronomy

Apr. 18, 2013 Rise Set
Actual Time 6:00 AM WET 7:03 PM WET
Civil Twilight 5:35 AM WET 7:28 PM WET
Nautical Twilight 5:05 AM WET 7:58 PM WET
Astronomical Twilight 4:34 AM WET 8:28 PM WET
Moon 12:03 PM WET (4/18) 1:04 AM WET (4/18)
Length of Visible Light 13h 53m
Length of Day
13h 02m
Waxing Crescent, 50% of the Moon is Illuminated
Apr 18
Waxing Crescent
Apr 18
First Quarter
Apr 25
Full
May 2
Last Quarter
May 10
New

Hourly Weather History & Observations

Time (WET) Temp. Dew Point Humidity Pressure Visibility Wind Dir Wind Speed Gust Speed Precip Events Conditions
12:00 AM 81 °F 47 °F 20% 30.02 in 6 mi SSW 12.7 mph - -   Scattered Clouds
12:00 AM 80.6 °F 46.4 °F 30% 30.09 in 6.2 mi SSW 12.7 mph - N/A   Partly Cloudy
3:00 AM 75 °F 47 °F 26% 29.99 in - NE 6.9 mph - -  
5:00 AM 71.6 °F 50.0 °F 46% 30.04 in 6.2 mi ESE 6.9 mph - N/A   Partly Cloudy
5:30 AM 73.4 °F 48.2 °F 41% 30.04 in 6.2 mi ESE 6.9 mph - N/A   Partly Cloudy
6:00 AM 71 °F 49 °F 34% 30.00 in 6 mi ESE 5.8 mph - -   Scattered Clouds
6:00 AM 71.6 °F 48.2 °F 43% 30.04 in 6.2 mi ESE 5.8 mph - N/A   Partly Cloudy
6:30 AM 69.8 °F 50.0 °F 49% 30.04 in 6.2 mi East 3.5 mph - N/A   Partly Cloudy
7:00 AM 69.8 °F 50.0 °F 49% 30.06 in 6.2 mi East 1.2 mph - N/A   Scattered Clouds
7:30 AM 75.2 °F 51.8 °F 44% 30.06 in 6.2 mi Calm Calm - N/A   Scattered Clouds
8:00 AM 78.8 °F 50.0 °F 36% 30.06 in 5.0 mi Calm Calm - N/A   Scattered Clouds
8:30 AM 82.4 °F 50.0 °F 32% 30.06 in 4.3 mi NNE 3.5 mph - N/A   Scattered Clouds
9:00 AM 84 °F 49 °F 20% 29.97 in 4 mi NE 3.5 mph - -   Scattered Clouds
9:00 AM 84.2 °F 50.0 °F 30% 30.06 in 3.7 mi NE 3.5 mph - N/A   Scattered Clouds
9:30 AM 86.0 °F 50.0 °F 29% 30.06 in 5.0 mi ENE 3.5 mph - N/A   Scattered Clouds
10:00 AM 87.8 °F 48.2 °F 25% 30.06 in 5.6 mi East 9.2 mph - N/A   Scattered Clouds
10:30 AM 89.6 °F 48.2 °F 24% 30.06 in - ENE 9.2 mph - N/A   Clear
11:00 AM 93.2 °F 48.2 °F 21% 30.04 in - ENE 8.1 mph - N/A   Clear
11:30 AM 95.0 °F 41.0 °F 15% 30.04 in - ENE 11.5 mph - N/A   Clear
12:00 PM 97 °F 36 °F 6% 29.91 in 6 mi ENE 11.5 mph - -   Clear
12:00 PM 96.8 °F 35.6 °F 12% 30.04 in - ENE 12.7 mph - N/A   Clear
12:30 PM 98.6 °F 32.0 °F 10% 30.01 in - East 11.5 mph - N/A   Clear
1:00 PM 98.6 °F 32.0 °F 10% 30.01 in 6.2 mi East 11.5 mph - N/A   Partly Cloudy
1:30 PM 98.6 °F 33.8 °F 10% 30.01 in 6.2 mi NE 9.2 mph - N/A   Partly Cloudy
2:00 PM 98.6 °F 33.8 °F 10% 29.98 in 6.2 mi East 13.8 mph - N/A   Partly Cloudy
2:30 PM 98.6 °F 30.2 °F 9% 29.98 in 6.2 mi ENE 13.8 mph - N/A   Partly Cloudy
3:00 PM 99 °F 33 °F 5% 29.84 in 6 mi ENE 13.8 mph - -   Scattered Clouds
3:00 PM 100.4 °F 33.8 °F 10% 29.98 in 6.2 mi ENE 12.7 mph - N/A   Partly Cloudy
3:30 PM 98.6 °F 30.2 °F 9% 29.95 in 6.2 mi NE 15.0 mph 26.5 mph N/A   Scattered Clouds
4:00 PM 98.6 °F 32.0 °F 10% 29.95 in 6.2 mi ENE 15.0 mph - N/A   Scattered Clouds
4:30 PM 98.6 °F 32.0 °F 10% 29.95 in 6.2 mi NE 12.7 mph - N/A   Scattered Clouds
5:00 PM 96.8 °F 32.0 °F 10% 29.95 in 6.2 mi NE 13.8 mph - N/A   Scattered Clouds
5:30 PM 95.0 °F 32.0 °F 11% 29.98 in 6.2 mi NE 10.4 mph - N/A   Scattered Clouds
6:00 PM 94 °F 34 °F 6% 29.86 in 6 mi NE 10.4 mph - -   Partly Cloudy
6:00 PM 95.0 °F 33.8 °F 12% 29.98 in 6.2 mi NNE 10.4 mph - N/A   Scattered Clouds
6:30 PM 93.2 °F 33.8 °F 12% 29.98 in 6.2 mi NE 8.1 mph - N/A   Scattered Clouds
7:00 PM 91.4 °F 33.8 °F 13% 29.98 in 6.2 mi NE 5.8 mph - N/A   Scattered Clouds
7:30 PM 89.6 °F 33.8 °F 14% 29.98 in 6.2 mi ENE 5.8 mph - N/A   Scattered Clouds
8:00 PM 86.0 °F 35.6 °F 17% 30.01 in 5.6 mi East 5.8 mph - N/A   Scattered Clouds
8:30 PM 82.4 °F 39.2 °F 21% 30.01 in 5.6 mi East 6.9 mph - N/A   Scattered Clouds
9:00 PM 81 °F 40 °F 14% 29.95 in 6 mi East 6.9 mph - -   Scattered Clouds
9:00 PM 80.6 °F 39.2 °F 23% 30.01 in 6.2 mi East 6.9 mph - N/A   Scattered Clouds
9:30 PM 80.6 °F 39.2 °F 23% 30.04 in - East 4.6 mph - N/A   Clear
10:00 PM 78.8 °F 41.0 °F 26% 30.04 in 5.6 mi East 4.6 mph - N/A   Unknown
10:30 PM 77.0 °F 42.8 °F 29% 30.04 in - East 5.8 mph - N/A   Clear
11:00 PM 77.0 °F 42.8 °F 29% 30.04 in - East 5.8 mph - N/A   Clear
11:30 PM 77.0 °F 42.8 °F 29% 30.04 in - East 5.8 mph - N/A   Clear